Voltar ao catálogo

COSMOS 886 DEB *

AtivoLEO
NORAD 13943·DEBRIS·🇷🇺 Russia

Lançado Dec 27, 1976 de Baikonur Cosmodrome

Loading…

Próximas Passagens (próximas 24 horas)

TLE

AtualizadoSource: Space-Track

Época: Sep 14, 2026, 03:56 UTC

1 13943U 76126BM  26257.16428654  .00003258  00000-0  10794-2 0  9991
2 13943  65.5748  48.0023 0067122 248.0539 287.0384 14.37943006156105

Acompanhe COSMOS 886 DEB * em tempo real com AllMySat

Download on the App Store